Regional Weather Roundup
Issued by NWS Wakefield, VA

Home | Current Version | Previous Version | Graphics & Text | Print | Product List | Glossary On
Versions: 1 2 3 4 5 6 7 8 9 10 11 12 13 14 15 16 17 18 19 20 21 22 23 24 25 26 27 28 29 30 31 32 33 34 35 36 37 38 39 40 41 42 43 44 45 46 47 48 49 50
000
ASUS41 KAKQ 240815
RWRAKQ

REGIONAL WEATHER ROUNDUP
NATIONAL WEATHER SERVICE WAKEFIELD VA
400 AM EDT TUE MAY 24 2016

Note: "fair" indicates few or no clouds below 12,000 feet with no
significant weather and/or obstructions to visibility. * = Denotes
station may not report precipitation (e.g., rain,snow,etc.),
thunder or fog.

VAZ042-051-052>054-056-240900-
NORTHERN VIRGINIA

CITY           SKY/WX    TMP DP  RH WIND       PRES   REMARKS
WASH NATIONAL  CLOUDY    59  57  93 SW5       29.94S
DULLES         FAIR      58  55  90 CALM      29.95R
FORT BELVOIR   CLOUDY    58  56  92 VRB1      29.94F
QUANTICO       FAIR      60  55  83 W6        29.96F
FREDERICKSBRG* CLOUDY    57  57 100 CALM      29.97R
STAFFORD*      CLOUDY    56  55  94 SW3       30.00S
WARRENTON      CLOUDY    55  51  85 SW3       29.96F
CULPEPER*      MOCLDY    54  54 100 CALM      29.98S FOG
MANASSAS*      MOCLDY    55  55 100 CALM      29.96F
LEESBURG*      FAIR      59  55  88 W5        29.96S
WINCHESTER     MOCLDY    54  52  94 CALM      29.97S FOG
FRONT ROYAL*   FAIR      55  52  88 S6        29.97S
LURAY*         FAIR      55  55 100 SW5       30.00S
$$

VAZ048-049-060>072-079>083-240900-
CENTRAL AND SOUTH CENTRAL VIRGINIA

CITY           SKY/WX    TMP DP  RH WIND       PRES   REMARKS
RICHMOND       FAIR      53  52  96 CALM      29.97R
CHESTERFIELD*  FAIR      54  43  66 CALM      29.98S
PETERSBURG*    FAIR      51  51 100 CALM      29.98S
HANOVER        MOCLDY    53  52  96 S3        29.98R FOG
TAPPAHANNOCK*  FAIR      54  54 100 CALM      29.97S
QUINTON*       FAIR      52  51  99 CALM      29.96S
CHARLOTTSVILLE FAIR      59  53  80 W3        29.97S
GORDONSVILLE*  FAIR      55  55 100 SW3       29.96S FOG
ORANGE*        FAIR      55  55 100 CALM      29.99R
LOUISA*        CLOUDY    59  57  94 CALM      29.96S
BUMPASS*       PTSUNNY   55  55 100 CALM      29.97S
FARMVILLE*     FAIR      54  54 100 SW3       29.97S
CREWE*         FAIR      50  50 100 CALM      29.97F
FORT PICKETT*  NOT AVBL
CHASE CITY*    FAIR      51  50  95 CALM      30.00S
CLARKSVILLE*   FAIR      52  52 100 W3        29.99F
SOUTH HILL*    FAIR      53  51  92 CALM      30.04F
LAWRENCEVILLE* FAIR      52  52 100 CALM      29.98S
EMPORIA*       FAIR      50  50 100 CALM      30.00S FOG
$$

VAZ088>098-240900-
SOUTHEAST VIRGINIA

CITY           SKY/WX    TMP DP  RH WIND       PRES   REMARKS
NORFOLK        FAIR      59  55  87 CALM      29.96S
VIRGINIA BEACH MOCLDY    60  54  80 NW5       29.95R
NORFOLK NAVAL  FAIR      59  56  89 W3        29.97S
WEST POINT*    FAIR      52  52  99 CALM      29.98R
SALUDA*        CLOUDY    57  56  97 CALM      29.95S
NEWPORT NEWS   FAIR      56  55  97 CALM      29.96S FOG
LANGLEY AFB    FAIR      56  55  93 NW3       29.96R
FORT EUSTIS    FAIR      59  55  87 W1        29.95R
WILLIAMSBURG*  FAIR      57  55  94 W3        29.97S
HR EXEC AP*      N/A     54  50  87 CALM      29.98S
FRANKLIN*      FAIR      52  50  95 CALM      29.98S
US460-WAKEFLD  FAIR      54  51  90 W3        29.97S
$$

VAZ020-022-025-037-045-240900-
WEST CENTRAL AND SOUTHWEST VIRGINIA

CITY           SKY/WX    TMP DP  RH WIND       PRES   REMARKS
STAUNTON*      MOCLDY   N/A N/A N/A SW3       30.04F
WAYNESBORO*    FAIR      51  50  96 CALM      30.03S
HOT SPRINGS VA FAIR      53  47  81 NW8       30.08S
LYNCHBURG      FAIR      50  50 100 CALM      30.02S
DANVILLE       FAIR      50  49  96 SW5       30.02S
SOUTH BOSTON*  FAIR      49  48  95 CALM      30.01S
MARTINSVILLE   FAIR      43  43 100 CALM      30.06S
ROANOKE        FAIR      53  51  93 VRB3      30.06S
BLACKSBURG     FAIR      48  47  99 CALM      30.10S FOG
DUBLIN*        FAIR      49  49  99 CALM      30.09S
MARION*        FAIR      46  45  96 CALM      30.13S
HILLSVILLE*    FAIR      50  48  93 W3        30.08S
RICHLANDS*     FAIR      50  38  63 CALM      30.10S
WISE*          FAIR      50  48  93 SW3       30.12R
ABINGDON*      FAIR      50  49  95 CALM      30.10S
$$

MDZ021>025-VAZ099-100-240900-
SOUTHERN MARYLAND AND THE DELMARVA PENINSULA

CITY           SKY/WX    TMP DP  RH WIND       PRES   REMARKS
PATUXENT RIVER CLOUDY    58  55  90 W10       29.94S
BAY BRIDGE APT MOCLDY    59  57  94 S6        29.92S
LEONARDTOWN    CLOUDY    55  54  94 W3        29.96S
DOVER          CLOUDY    57  57 100 S3        29.90S
GEORGETOWN     CLOUDY    57  56  96 SW6       29.91F
EASTON         LGT RAIN  59  59 100 SW6       29.95F
CAMBRIDGE        N/A     55  54  94 CALM      29.92F
SALISBURY      CLOUDY    57  55  93 SW3       29.91F
OCEAN CITY     CLOUDY    57  53  86 W3        29.91F
WALLOPS ISLAND CLOUDY    58  55  90 W6        29.93F
ACCOMACK*      CLOUDY    57  55  94 CALM      29.95S
$$

NCZ012>017-030>032-240900-
NORTH CENTRAL AND EASTERN NORTH CAROLINA

CITY           SKY/WX    TMP DP  RH WIND       PRES   REMARKS
ROANOKE RAPIDS FAIR      50  50 100 S5        30.00S
RALEIGH        PTCLDY    51  50  96 SW3       30.03S
ELIZABETH CITY CLOUDY    56  52  86 W6        29.97S
AHOSKIE*       CLEAR     50  49  97 CALM      30.00S
EDENTON*       CLOUDY   N/A N/A N/A W6        29.99S
CURRITUCK*     CLOUDY    58  55  90 W5        29.97S
KILL DEVIL HLS CLOUDY    62  54  75 W8        29.95R
MANTEO         CLOUDY    58  58  97 W5        29.98R
CAPE HATTERAS  CLEAR     63  54  72 W9        29.99R
TARBORO*       FAIR      49  49  97 CALM      30.02S
GOLDSBORO      CLEAR     53  53 100 CALM      30.02R
WASHINGTON     CLEAR     53  51  93 CALM      30.02R
GREENVILLE     CLEAR     54  52  94 W3        30.03S
NEW BERN       CLEAR     53  50  89 SW3       30.04R
WILMINGTON     CLEAR     55  53  93 NW6       30.04S
$$

VAZ048-240900-
ELSEWHERE

CITY           SKY/WX    TMP DP  RH WIND       PRES   REMARKS
HARRISBURG PA  PTCLDY    57  52  83 NW10      29.90S
BALTIMORE      MOCLDY    59  55  87 W8        29.92S
ANNAPOLIS      MOCLDY    59  56  89 CALM      29.91S
ANDREWS AFB    MOCLDY    59  55  88 W7        29.93S
PHILADELPHIA   CLOUDY    58  54  86 SW9       29.88F
HENDERSON NC   CLEAR     51  48  92 W3        30.00F
GREENSBORO     CLEAR     55  52  89 W7        30.03F
ROCKY MOUNT    CLOUDY    54  51  90 S3        30.01S
$$

VAZ100-240900-
MARINE

STATION/POSITION TIME  TEMP    WIND        PRES    WAVE   SWELL
                       AIR SEA DIR/SP/G            HT/PER HT/PER
                 (UTC) (F)     (DEG/KT/KT) (MB)    (FT/S) (FT/S)
BRANDYWINE LGT   0700   59     270/ 11/ 12 1012.8F
CAPE MAY NJ      0700   59 63  280/  7/  9 1012.7F
LEWES DE         0700   57 59  270/  4/  5 1013.0F
15NM E FENWICK I 0750   57 55              1012.9F   4/ 8
OCEAN-CITY-INLET 0700   58 58  300/  4/  5 1012.5F
WACHAPREAGUE VA  0700   58 63  280/  2/  3 1013.7R
THOMAS POINT MD  0800   61 61  250/  7/  8 1014.3F
GOOSES REEF MD   0800   60 60  260/  8/ 10 1014.1F
COVE POINT MD    0700   58     280/  7/  7 1014.3F
SOLOMONS ISLAND  0700   58 62  260/  2/  4   N/A
BISHOPS HEAD MD  0700   61 63  270/  5/  7 1013.8R
PINEY POINT MD   0700          280/  6/  7   N/A
POTOMAC MD       0800   60 62  290/ 10/ 12 1013.0F   1/ 2
CAMBRIDGE MD     0700   59 63  200/  2/  3 1012.6F
LEWISETTA VA     0700   58 63  310/  3/  4 1014.0R
RAPPAHANNOCK LGT 0700          300/  9/  9 1014.9R
STINGRAY PT      0800   61 63  300/ 10/ 12 1014.5S   1
YORK RVR RNG VA  0700   62     290/  8/  9 1013.6R
YORKTOWN VA      0700   60 64  270/  5/  7 1014.0R
JAMESTOWN VA     0800   60 66  240/  4/  6   N/A     0
DOMINION TERM VA 0700   62     320/ 10/ 12 1014.4R
KIPTOPEKE VA     0700      63  320/ 12/ 13   N/A
CHES BAY BRIDGE  0700   62 63  260/ 13/ 15 1014.0R
CAPE HENRY VA    0700   61     270/  9/ 11   N/A
CHESAPEAKE LGHT  0700   60     300/ 14/ 15 1014.6R
WILLOUBY STN VA  0700   62     290/  9/ 10 1015.2R
CAPE HENRY BUOY  0712      58                N/A     4/ 9   2/11
1ST LANDING BUOY 0800   62 62  290/ 10/ 12 1014.5R   2/ 3
CAPE CHARLES BUO 0726      60                N/A     3/ 9   3/ 9
OFFSHORE WE BUOY 0721      58                N/A     4/ 9   3/ 9
64NM E OF VA BCH 0750   57 58  290/  6/  8 1013.7R   6/10   5/10
DUCK PIER NC     0700   62 63  290/ 10/ 11 1013.5S
44100 DUCK FRF   0724      58                N/A     4/ 8   2/11
44056 DUCK FRF   0711      62                N/A     4/ 9   2/11
OREGON INLET NC  0700   60 64  270/ 10/ 13 1014.0F
HATTERAS NC      0700   64 67  280/ 14/ 16 1014.7R
DIAMOND SHLS NC  0750   64 68  270/ 14/ 17 1015.4R   4/ 9  C1F1C2F2C3F3C4F4C5F5C6F6C7F7C8M1C9!


USA.gov is the U.S. government's official web portal to all federal, state and local government web resources and services.